Regional Weather Roundup
Issued by NWS Wilmington, NC

Home | Current Version | Previous Version | Text Only | Print | Product List | Glossary On
Versions: 1 2 3 4 5 6 7 8 9 10 11 12 13 14 15 16 17 18 19 20 21 22 23 24 25 26 27 28 29 30 31 32 33 34 35 36 37 38 39 40 41 42 43 44 45 46 47 48 49 50
000
ASUS42 KILM 271013
RWRILM
RWRILM
REGIONAL HOURLY WEATHER ROUNDUP
NATIONAL WEATHER SERVICE WILMINGTON NC
600 AM EDT WED MAY 27 2015

NOTE: "FAIR" INDICATES FEW OR NO CLOUDS BELOW 12,000 FEET WITH NO
SIGNIFICANT WEATHER AND/OR OBSTRUCTIONS TO VISIBILITY.

...............WFO WILMINGTON COUNTY WARNING AREA...............

......COASTAL NC AND SC COUNTIES......

CITY           SKY/WX    TMP DP  RH WIND       PRES   REMARKS
WILMINGTON     PTCLDY    73  70  90 SE5       30.23R
N MYRTLE BEACH NOT AVBL
MYRTLE BEACH   PTCLDY    75  70  83 SE9       30.22

......INLAND NC AND SC COUNTIES.......

CITY           SKY/WX    TMP DP  RH WIND       PRES   REMARKS
LUMBERTON      PTCLDY    69  67  93 SE5       30.21R
ELIZABETHTOWN  MOCLDY    70  70 100 SE3       30.22R
WHITEVILLE     MOCLDY    71  69  94 CALM      30.21S
FLORENCE       PTCLDY    71  69  93 SW5       30.21R
DARLINGTON     NOT AVBL

....................REST OF NORTH CAROLINA......................

.........EASTERN NC.........

CITY           SKY/WX    TMP DP  RH WIND       PRES   REMARKS
CAPE HATTERAS  PTCLDY    72  62  71 S10       30.27S
JACKSONVILLE   CLOUDY    72  66  83 SE5       30.24S
MOREHEAD CITY  CLOUDY    74  67  78 S7        30.26R
KENANSVILLE    CLOUDY    70  68  95 CALM      30.24S
NEW BERN       CLOUDY    71  67  87 S3        30.26R
ELIZABETH CITY CLOUDY    71  66  84 S9        30.24S

.........CENTRAL NC.........

CITY           SKY/WX    TMP DP  RH WIND       PRES   REMARKS
RALEIGH DURHAM MOCLDY    71  68  90 S5        30.21R
ROCKY MOUNT    MOCLDY    71  69  93 S5        30.22S
ROANOKE RAPIDS NOT AVBL
FAYETTEVILLE   CLOUDY    70  68  93 SE3       30.21R
HOFFMAN        MOCLDY    69  68  96 S5        30.25R

.........WESTERN NC.........

CITY           SKY/WX    TMP DP  RH WIND       PRES   REMARKS
CHARLOTTE      MOCLDY    66  63  90 SW3       30.22R
GREENSBORO     MOCLDY    65  64  97 S7        30.20R
HICKORY        NOT AVBL
BOONE          NOT AVBL
ASHEVILLE      NOT AVBL

.....................REST OF SOUTH CAROLINA.....................

.........EASTERN SC.........

CITY           SKY/WX    TMP DP  RH WIND       PRES   REMARKS
CHARLESTON     PTCLDY    72  69  90 S3        30.20R
BEAUFORT MCAS  PTCLDY    76  71  85 CALM      30.19R
HILTON HEAD    NOT AVBL

.........CENTRAL SC.........

CITY           SKY/WX    TMP DP  RH WIND       PRES   REMARKS
COLUMBIA       MOCLDY    68  64  87 CALM      30.21R
ORANGEBURG     CLOUDY    70  67  90 CALM      30.21R
SUMTER SHAW    MOCLDY    68  66  94 NE2       30.20R

.........WESTERN SC.........

CITY           SKY/WX    TMP DP  RH WIND       PRES   REMARKS
GREENVILLE     NOT AVBL
ROCK HILL      CLOUDY    65  64  97 SW3       30.23R FOG
ANDERSON       CLOUDY    67  65  93 SW3       30.22R
CLEMSON        NOT AVBL
GREENWOOD      CLOUDY    66  65  96 CALM      30.24R FOG


...................COASTAL AND OFFSHORE REPORTS..................

................LOCAL PIERS AND NC RESERVE................


STATION/POSITION TIME  SKY/WX   TEMP    WIND        PRES    VSBY
                                AIR SEA DIR/SP/G
                 (UTC)          (F)     (DEG/KT/KT) (MB)    (MI)
JOHNY MRCER PIER 0900            75 77  200/  8/  9 1023.0S
NC RESRV MASNBRO NOT AVBL
OCEAN CREST PIER 1002            76 78  120/ 10/ 11 1022.8R
SPRINGMAID  PIER 0900            75 78  140/  9/ 11 1022.7F


................COASTAL AND OFFSHORE BUOYS................


STATION/POSITION TIME  SKY/WX   TEMP    WIND        PRES    VSBY
                                AIR SEA DIR/SP/G
                 (UTC)          (F)     (DEG/KT/KT) (MB)    (MI)
DIMNDSHOAL 41025 0950            74 78  210/ 10/ 12 1025.1R
WVE H/P(F/S)=  3/ 4 WND WVE H/P(F/S)=  2/ 4 SWL H/P/D(F/S/D)=  2/140/ 5

CAPE LOOKOUT     1000            74     190/  5/  6 1024.5R
ONSLOW BAY 41036 NOT AVBL
5 WRITEBCH 41038 NOT AVBL
MASONBORO  41110 0919               76                N/A
WVE H/P(F/S)=  3/ 5 WND WVE H/P(F/S)=  3/ 5

WILM HARBR 41108 0911               76                N/A
WVE H/P(F/S)=  3/ 6 WND WVE H/P(F/S)=  3/ 6

27WRITEBCH 41037 0900            72 76  190/  8/ 10   N/A
FRYING PAN 41013 0950            77 74  210/  6/  8 1024.6R
WVE H/P(F/S)=  3/ 7 WND WVE H/P(F/S)=  2/ 4 SWL H/P/D(F/S/D)=  3/110/ 7

SUNST NRSH 41024 0908            74     180/ 10/ 14 1022.9F
CAPRS NRSH 41029 0908            76     170/  8/ 10 1022.1F
EDISTO     41004 0950            77 76  150/ 12/ 14 1022.0R
WVE H/P(F/S)=  3/ 7 WND WVE H/P(F/S)=  2/ 5 SWL H/P/D(F/S/D)=  3/ 7



..........OFFSHORE BUOYS BEYOND 100 NM OFFSHORE...........
.....IN A TRIANGLE---HAT TO BERMUDA TO BAHAMAS TO HAT.....


STATION/POSITION TIME  SKY/WX   TEMP    WIND        PRES    VSBY
                                AIR SEA DIR/SP/G
                 (UTC)          (F)     (DEG/KT/KT) (MB)    (MI)
150E HAT   41001 NOT AVBL
W BERMUDA  41048 0950            71 74   70/ 14/ 17 1025.1R
WVE H/P(F/S)=  5/ 8 WND WVE H/P(F/S)=  5/ 7 SWL H/P/D(F/S/D)=  3/ 90/ 8

ATLANTIC S 41049 0950            72 78  360/ 12/ 16 1015.5R
WVE H/P(F/S)=  8/ 9 WND WVE H/P(F/S)=  3/ 5 SWL H/P/D(F/S/D)=  7/ 30/ 9

E BAHAMAS  41046 0950            78 81   50/ 16/ 19 1016.5R
WVE H/P(F/S)=  7/ 8 WND WVE H/P(F/S)=  5/ 7 SWL H/P/D(F/S/D)=  5/ 40/ 8

NE BAHAMAS 41047 0950            75 77   60/ 16/ 19 1020.8R
WVE H/P(F/S)=  7/ 8 WND WVE H/P(F/S)=  5/ 6 SWL H/P/D(F/S/D)=  5/ 70/ 8

120E CANVRL41010 0920            78 81  100/ 12/ 16 1021.5F

END



USA.gov is the U.S. government's official web portal to all federal, state and local government web resources and services.